Change the Weather History Date:

Friday, August 22, 2014

  Actual Average (KIPT) Record (KIPT)
Temperature  
Mean Temperature 74 °F 71 °F  
Max Temperature 82 °F 81 °F 98 °F (1916)
Min Temperature 66 °F 60 °F 42 °F (1941)
Degree Days  
Heating Degree Days 0 0  
Month to date heating degree days 0  
Since 1 June heating degree days 41  
Since 1 July heating degree days 4  
Cooling Degree Days 8 6  
Month to date cooling degree days 154  
Year to date cooling degree days 587  
Since 1 June cooling degree days 544  
Growing Degree Days 24 (Base 50)    
Moisture  
Dew Point 68 °F    
Average Humidity 83    
Maximum Humidity 96    
Minimum Humidity 64    
Precipitation  
Precipitation 0.06 in 0.12 in 1.33 in (2010)
Month to date precipitation 2.77  
Year to date precipitation 25.94  
Sea Level Pressure  
Sea Level Pressure 29.99 in    
Wind  
Wind Speed 2 mph (SSE)    
Max Wind Speed 8 mph    
Max Gust Speed -    
Visibility 5 miles    
Events Rain , Thunderstorm    
T = Trace of Precipitation, MM = Missing Value Source: NWS Daily Summary

Daily Weather History Graph

Daily Weather History Graph

Search for Another Location

Airport or City:

Trip Planner

Search our weather history database for the weather conditions in past years. The results will help you decide how hot, cold, wet, or windy it might be!

Date:

Astronomy

Aug. 22, 2014 Rise Set
Actual Time 6:24 AM EDT 7:55 PM EDT
Civil Twilight 5:55 AM EDT 8:24 PM EDT
Nautical Twilight 5:20 AM EDT 8:58 PM EDT
Astronomical Twilight 4:43 AM EDT 9:35 PM EDT
Moon 3:44 AM EDT (8/22) 6:02 PM EDT (8/22)
Length of Visible Light 14h 28m
Length of Day
13h 30m
Waning Crescent, 8% of the Moon is Illuminated
Aug 22
Waning Crescent
Aug 25
New
Sep 2
First Quarter
Sep 8
Full
Sep 15
Last Quarter

Hourly Weather History & Observations

Time (EDT) Temp. Heat Index Dew Point Humidity Pressure Visibility Wind Dir Wind Speed Gust Speed Precip Events Conditions
12:03 AM 66.9 °F - 64.9 °F 93% 30.01 in 3.0 mi Calm Calm - N/A   Mostly Cloudy
12:49 AM 68.0 °F - 66.2 °F 94% 30.00 in 2.5 mi Calm Calm - N/A   Mostly Cloudy
12:53 AM 68.0 °F - 66.0 °F 93% 29.99 in 2.0 mi Calm Calm - N/A   Mostly Cloudy
1:53 AM 68.0 °F - 66.9 °F 96% 29.99 in 1.0 mi Calm Calm - N/A   Overcast
2:03 AM 68.0 °F - 66.9 °F 96% 29.99 in 0.8 mi Variable 3.5 mph - N/A   Overcast
2:53 AM 68.0 °F - 66.9 °F 96% 29.99 in 0.8 mi Calm Calm - N/A   Overcast
3:01 AM 68.0 °F - 66.9 °F 96% 29.99 in 1.0 mi South 3.5 mph - N/A   Overcast
3:14 AM 68.0 °F - 66.9 °F 96% 29.99 in 1.8 mi Calm Calm - N/A   Overcast
3:53 AM 68.0 °F - 66.9 °F 96% 29.98 in 2.0 mi Calm Calm - N/A   Overcast
5:53 AM 69.1 °F - 66.9 °F 93% 29.98 in 2.0 mi Calm Calm - N/A   Overcast
6:03 AM 69.1 °F - 66.9 °F 93% 29.99 in 2.0 mi Calm Calm - N/A   Overcast
6:37 AM 69.1 °F - 66.9 °F 93% 30.00 in 1.8 mi Calm Calm - N/A   Overcast
6:53 AM 69.1 °F - 66.9 °F 93% 29.99 in 1.5 mi Calm Calm - N/A   Overcast
8:31 AM 72.0 °F - 68.0 °F 87% 30.02 in 3.0 mi Calm Calm - N/A   Overcast
8:42 AM 72.0 °F - 68.0 °F 87% 30.02 in 3.0 mi Calm Calm - N/A   Mostly Cloudy
8:49 AM 73.4 °F - 68.0 °F 83% 30.03 in 4.0 mi Calm Calm - N/A   Haze
8:53 AM 73.0 °F - 69.1 °F 87% 30.02 in 4.0 mi Calm Calm - N/A   Scattered Clouds
9:38 AM 73.9 °F - 68.0 °F 82% 30.03 in 5.0 mi Variable 3.5 mph - N/A   Haze
9:53 AM 73.9 °F - 68.0 °F 82% 30.02 in 5.0 mi South 3.5 mph - N/A   Haze
10:25 AM 75.9 °F - 69.1 °F 79% 30.02 in 6.0 mi Calm Calm - N/A   Haze
10:53 AM 78.1 °F - 68.0 °F 71% 30.01 in 6.0 mi Variable 3.5 mph - N/A   Haze
11:53 AM 78.1 °F - 66.9 °F 68% 30.00 in 6.0 mi SE 3.5 mph - N/A   Haze
12:27 PM 80.1 °F 82.3 °F 66.9 °F 64% 30.00 in 7.0 mi SSE 4.6 mph - N/A   Scattered Clouds
12:53 PM 79.0 °F - 68.0 °F 69% 29.99 in 6.0 mi ESE 4.6 mph - N/A   Haze
1:53 PM 80.1 °F 82.9 °F 69.1 °F 69% 29.98 in 6.0 mi Variable 6.9 mph - N/A   Haze
2:53 PM 81.0 °F 84.1 °F 69.1 °F 67% 29.96 in 6.0 mi SW 4.6 mph - N/A   Haze
3:53 PM 79.0 °F - 69.1 °F 72% 29.94 in 7.0 mi SSE 6.9 mph - 0.00 in Rain Light Rain
4:11 PM 78.1 °F - 69.1 °F 74% 29.96 in 7.0 mi South 8.1 mph - 0.00 in Rain Light Rain
4:28 PM 78.1 °F - 69.1 °F 74% 29.96 in 7.0 mi SSE 3.5 mph - 0.00 in Rain Light Rain
4:53 PM 78.1 °F - 68.0 °F 71% 29.95 in 7.0 mi SSE 5.8 mph - 0.00 in   Overcast
5:53 PM 79.0 °F - 68.0 °F 69% 29.96 in 6.0 mi South 4.6 mph - 0.00 in   Haze
6:49 PM 75.2 °F - 68.0 °F 78% 29.95 in 6.0 mi SE 4.6 mph - N/A Thunderstorm Haze
6:53 PM 75.0 °F - 68.0 °F 79% 29.95 in 7.0 mi SE 4.6 mph - N/A Thunderstorm Mostly Cloudy
7:22 PM 75.0 °F - 68.0 °F 79% 29.97 in 7.0 mi SE 4.6 mph - N/A   Overcast
7:48 PM 75.2 °F - 68.0 °F 78% 29.98 in 7.0 mi SE 4.6 mph - N/A Thunderstorm Overcast
7:53 PM 73.9 °F - 66.9 °F 79% 29.97 in 7.0 mi Variable 4.6 mph - N/A   Mostly Cloudy
8:00 PM 73.9 °F - 66.9 °F 79% 29.98 in 8.0 mi Calm Calm - N/A Thunderstorm Mostly Cloudy
8:15 PM 73.9 °F - 66.9 °F 79% 29.99 in 8.0 mi South 4.6 mph - N/A   Mostly Cloudy
8:23 PM 73.9 °F - 66.9 °F 79% 29.99 in 8.0 mi Variable 4.6 mph - N/A   Overcast
8:53 PM 73.9 °F - 66.9 °F 79% 29.99 in 9.0 mi South 4.6 mph - N/A   Overcast
9:01 PM 73.9 °F - 66.0 °F 76% 30.00 in 9.0 mi Calm Calm - N/A   Overcast
9:53 PM 73.0 °F - 66.9 °F 81% 30.00 in 9.0 mi Calm Calm - 0.00 in Rain Light Rain
10:53 PM 71.1 °F - 68.0 °F 90% 30.00 in 5.0 mi SE 3.5 mph - 0.05 in Rain Light Rain
11:04 PM 71.1 °F - 68.0 °F 90% 30.01 in 6.0 mi Calm Calm - 0.01 in Rain Light Rain
11:53 PM 71.1 °F - 68.0 °F 90% 30.01 in 6.0 mi SE 3.5 mph - 0.01 in   Overcast